Regional Weather Roundup
Issued by NWS State College, PA

Home | Current Version | Previous Version | Text Only | Print | Product List | Glossary On
Versions: 1 2 3 4 5 6 7 8 9 10 11 12 13 14 15 16 17 18 19 20 21 22 23 24 25 26 27 28 29 30 31 32 33 34 35 36 37 38 39 40 41 42 43 44 45 46 47 48 49 50
000
ASUS41 KCTP 272110
RWRCTP

REGIONAL WEATHER ROUNDUP
NATIONAL WEATHER SERVICE STATE COLLEGE PA
400 PM EST THU NOV 27 2014

Note: "fair" indicates few or no clouds below 12,000 feet with no
significant weather and/or obstructions to visibility.

* = STATION THAT DOES NOT REPORT PRECIPITATION /E.G. RAIN...SNOW...ETC/
    THUNDER OR FOG.

PAZ002>004-007>009-013>016-020>023-029>032-272200-
WESTERN PENNSYLVANIA

CITY           SKY/WX    TMP DP  RH WIND       PRES   REMARKS
ERIE           CLOUDY    34  22  61 W14G22    30.10R
MEADVILLE      CLOUDY    30  22  72 W10G20    30.08R
FRANKLIN*      CLOUDY    28  23  80 NW12      30.08R
NEW CASTLE     FLURRIES  30  23  75 W9        30.14R
BEAVER COUNTY  NOT AVBL
BUTLER*        CLOUDY    32  27  80 W7        30.11R
PITTSBURGH INT LGT SNOW  32  28  85 NW13      30.11R FOG
PITTSBURGH     CLOUDY    32  25  75 NW10G20   30.09R
INDIANA*       FOG       32  30  93 NW5G17    30.09R VSB 1/4
LATROBE        LGT SNOW  32  32 100 W8        30.09R FOG
WASHINGTON CO* CLOUDY    32  27  80 W10G18    30.13R
$$

PAZ004>006-010>012-017>019-024>028-033>037-041-042-045-046-049>053-272200-
CENTRAL PENNSYLVANIA

CITY           SKY/WX    TMP DP  RH WIND       PRES   REMARKS
BRADFORD       LGT SNOW  29  23  78 NW10      29.98R VSB 1
DUBOIS         CLOUDY    31  26  82 W8        30.01R
CLEARFIELD     CLOUDY    32  26  78 W5        30.02R
JOHNSTOWN      LGT SNOW  29  25  85 W9        30.00R FOG
ALTOONA        CLOUDY    34  26  72 NW9       30.03R
STATE COLLEGE  MOCLDY    32  28  86 CALM      30.02S
WILLIAMSPORT   CLOUDY    35  27  72 W6        30.03R
SELINSGROVE    PTCLDY    33  26  75 CALM      30.05R
FT INDIANTOWN  CLOUDY    36  27  70 NW3       30.05R
CAPITAL CITY   CLOUDY    37  28  70 W3        30.06R
HARRISBURG     MOCLDY    36  28  73 NW3       30.05S
YORK           CLOUDY    36  30  79 CALM      30.05R
$$

PAZ038>040-043-044-047-048-054-055-060>062-067>071-272200-
EASTERN PENNSYLVANIA

CITY           SKY/WX    TMP DP  RH WIND       PRES   REMARKS
SCRANTON       CLOUDY    32  23  69 NW14      30.01R
MOUNT POCONO   CLOUDY    28  21  75 NW13G23   29.94R
ALLENTOWN      CLOUDY    36  27  69 W7        30.02R
QUAKERTOWN*    CLOUDY    36  28  75 W5        30.02S
READING        CLOUDY    37  28  70 NW12      30.04R
LANCASTER      CLOUDY    36  26  67 NW10      30.05R
COATESVILLE    PTCLDY    36  28  75 NW10      30.03S
POTTSTOWN      CLOUDY    35  27  72 NW7       30.04S
BLUE BELL      CLOUDY    37  30  75 CALM      30.02S
DOYLESTOWN     CLOUDY    34  28  79 NW6       30.01R
WILLOW GROVE   NOT AVBL
NORTH PHILA    CLOUDY    39  26  59 W10       30.05R
PHILADELPHIA   MOCLDY    40  28  62 NW12      30.04R
$$



USA.gov is the U.S. government's official web portal to all federal, state and local government web resources and services.